Date String (YYYY-MM-DD hh:mm:ss) UTC,Instrument flags,Ambient pressure (hPa),Sample flow (lpm),Bypass flow (lpm),Sample temperature (°C),Ambient temperature (°C),ASC tube jacket temperature (°C),LED temperature (°C),Box temperature (°C),Sample RH (%),Span deviation,Mass concentration (μg/m³),Mass concentration (μg/m³),Mass concentration (μg/m³)
DateTimeUTC,F1_M11,P_M11,Q1_M11,Q2_M11,T1_M11,T2_M11,T3_M11,T4_M11,T5_M11,U1_M11,ZSPAN_M11,X0_M11,X2_M11,X1_M11
2022-04-06 06:00:00,,0823.9,5.00,0.00,22.0,21.0,00.0,31.1,23.6,06.2,0000.0,0005.24,0001.98,0000.90
2022-04-06 06:01:00,,0824.0,5.00,0.00,21.9,21.0,00.0,31.1,23.6,06.2,0000.0,0005.32,0002.00,0000.90
2022-04-06 06:02:00,,0824.0,5.01,0.00,21.9,20.9,00.0,31.0,23.5,06.1,0000.0,0005.63,0002.03,0000.89
2022-04-06 06:03:00,,0824.0,5.01,0.00,21.9,20.8,00.0,31.0,23.4,06.1,0000.0,0005.67,0001.98,0000.89
2022-04-06 06:04:00,,0823.9,5.00,0.00,21.9,20.8,00.0,31.0,23.5,06.1,0000.0,0005.63,0001.95,0000.89
2022-04-06 06:05:00,,0824.0,5.00,0.00,21.9,20.7,00.0,31.0,23.4,05.9,0000.0,0005.65,0001.92,0000.89
2022-04-06 06:06:00,,0824.0,5.00,0.00,21.8,20.6,00.0,31.0,23.4,05.9,0000.0,0005.55,0001.87,0000.88
2022-04-06 06:07:00,,0824.0,4.99,0.00,21.8,20.6,00.0,30.9,23.3,05.9,0000.0,0005.23,0001.76,0000.86
2022-04-06 06:08:00,,0824.1,5.00,0.00,21.8,20.6,00.0,30.9,23.3,05.9,0000.0,0005.44,0001.65,0000.84
2022-04-06 06:09:00,,0824.0,5.00,0.00,21.8,20.8,00.0,30.9,23.4,06.0,0000.0,0005.85,0001.62,0000.82
2022-04-06 06:10:00,,0824.1,5.01,0.00,21.9,21.6,00.0,31.0,23.7,06.1,0000.0,0005.44,0001.55,0000.81
2022-04-06 06:11:00,,0824.0,5.00,0.00,22.0,22.5,00.0,31.0,24.0,06.0,0000.0,0005.30,0001.56,0000.81
2022-04-06 06:12:00,,0824.0,5.00,0.00,22.2,23.1,00.0,31.1,24.3,06.0,0000.0,0005.28,0001.52,0000.80
2022-04-06 06:13:00,,0824.0,5.00,0.00,22.3,22.9,00.0,31.1,24.2,06.0,0000.0,0005.10,0001.47,0000.81
2022-04-06 06:14:00,,0824.0,5.00,0.00,22.3,22.6,00.0,31.1,24.2,06.0,0000.0,0005.12,0001.49,0000.80
2022-04-06 06:15:00,,0824.0,4.99,0.00,22.3,22.3,00.0,31.1,24.1,06.1,0000.0,0005.23,0001.54,0000.79
2022-04-06 06:16:00,,0824.1,5.00,0.00,22.2,22.1,00.0,31.1,24.0,06.0,0000.0,0005.97,0001.53,0000.77
2022-04-06 06:17:00,,0824.0,5.01,0.00,22.2,21.8,00.0,31.1,23.9,05.8,0000.0,0006.36,0001.57,0000.79
2022-04-06 06:18:00,,0824.0,5.01,0.00,22.2,21.6,00.0,31.1,23.9,05.8,0000.0,0006.63,0001.63,0000.81
2022-04-06 06:19:00,,0824.0,4.98,0.00,22.2,21.5,00.0,31.1,23.9,05.8,0000.0,0006.37,0001.63,0000.82
2022-04-06 06:20:00,,0824.1,5.00,0.00,22.2,21.4,00.0,31.1,23.8,05.8,0000.0,0005.92,0001.64,0000.83
2022-04-06 06:21:00,,0824.1,5.00,0.00,22.1,21.3,00.0,31.1,23.7,05.8,0000.0,0005.94,0001.71,0000.83
2022-04-06 06:22:00,,0824.1,5.00,0.00,22.1,21.2,00.0,31.1,23.7,05.9,0000.0,0006.72,0001.77,0000.83
2022-04-06 06:23:00,,0824.1,5.00,0.00,22.1,21.1,00.0,31.1,23.7,05.9,0000.0,0007.19,0001.78,0000.84
2022-04-06 06:24:00,,0824.1,5.00,0.00,22.0,21.0,00.0,31.1,23.7,06.0,0000.0,0007.17,0001.82,0000.83
2022-04-06 06:25:00,,0824.1,5.01,0.00,22.0,21.0,00.0,31.1,23.6,05.9,0000.0,0007.10,0001.81,0000.82
2022-04-06 06:26:00,,0824.1,5.00,0.00,22.0,21.0,00.0,31.1,23.6,05.9,0000.0,0007.27,0001.72,0000.81
2022-04-06 06:27:00,,0824.1,5.01,0.00,22.0,21.0,00.0,31.1,23.7,06.0,0000.0,0007.38,0001.72,0000.82
2022-04-06 06:28:00,,0824.1,5.00,0.00,22.0,21.0,00.0,31.1,23.7,06.0,0000.0,0007.41,0001.70,0000.81
2022-04-06 06:29:00,,0824.2,4.99,0.00,22.0,21.0,00.0,31.1,23.6,06.1,0000.0,0007.34,0001.68,0000.80
2022-04-06 06:30:00,,0824.2,5.00,0.00,22.0,21.0,00.0,31.1,23.7,06.1,0000.0,0007.10,0001.71,0000.79
2022-04-06 06:31:00,,0824.2,5.00,0.00,22.0,20.9,00.0,31.1,23.6,06.1,0000.0,0007.00,0001.72,0000.80
2022-04-06 06:32:00,,0824.2,5.01,0.00,22.0,20.9,00.0,31.0,23.6,06.1,0000.0,0007.23,0001.66,0000.79
2022-04-06 06:33:00,,0824.2,5.00,0.00,21.9,20.9,00.0,31.0,23.6,06.1,0000.0,0006.22,0001.60,0000.79
2022-04-06 06:34:00,,0824.2,4.99,0.00,21.9,20.9,00.0,31.0,23.6,06.0,0000.0,0005.78,0001.61,0000.78
2022-04-06 06:35:00,,0824.2,5.00,0.00,21.9,20.9,00.0,31.0,23.5,06.0,0000.0,0006.57,0001.61,0000.78
2022-04-06 06:36:00,,0824.2,5.00,0.00,21.9,20.8,00.0,31.0,23.5,06.0,0000.0,0006.93,0001.72,0000.80
2022-04-06 06:37:00,,0824.2,5.01,0.00,21.9,20.8,00.0,31.0,23.5,06.0,0000.0,0006.70,0001.84,0000.81
2022-04-06 06:38:00,,0824.2,5.01,0.00,21.9,20.9,00.0,31.0,23.6,05.9,0000.0,0006.20,0001.90,0000.81
2022-04-06 06:39:00,,0824.3,5.00,0.00,22.0,21.5,00.0,31.0,23.8,05.9,0000.0,0005.90,0001.90,0000.81
2022-04-06 06:40:00,,0824.3,5.00,0.00,22.1,22.4,00.0,31.1,24.1,05.8,0000.0,0005.91,0001.94,0000.81
2022-04-06 06:41:00,,0824.3,5.00,0.00,22.2,23.1,00.0,31.1,24.3,05.8,0000.0,0005.94,0001.95,0000.82
2022-04-06 06:42:00,,0824.2,4.98,0.00,22.4,23.1,00.0,31.1,24.4,05.7,0000.0,0006.18,0002.01,0000.82
2022-04-06 06:43:00,,0824.3,5.00,0.00,22.4,22.8,00.0,31.2,24.3,05.7,0000.0,0005.90,0002.03,0000.82
2022-04-06 06:44:00,,0824.3,4.99,0.00,22.3,22.5,00.0,31.2,24.2,05.7,0000.0,0005.89,0002.02,0000.82
2022-04-06 06:45:00,,0824.2,5.02,0.00,22.3,22.2,00.0,31.2,24.1,05.7,0000.0,0005.87,0002.00,0000.81
2022-04-06 06:46:00,,0824.2,5.00,0.00,22.3,22.0,00.0,31.2,24.0,05.6,0000.0,0005.08,0001.94,0000.81
2022-04-06 06:47:00,,0824.1,4.99,0.00,22.2,21.8,00.0,31.2,23.9,05.6,0000.0,0004.70,0001.87,0000.78
2022-04-06 06:48:00,,0824.1,5.01,0.00,22.2,21.6,00.0,31.2,23.9,05.5,0000.0,0004.59,0001.80,0000.77
2022-04-06 06:49:00,,0824.1,5.00,0.00,22.2,21.4,00.0,31.2,23.8,05.4,0000.0,0004.82,0001.74,0000.77
2022-04-06 06:50:00,,0824.2,5.00,0.00,22.1,21.3,00.0,31.2,23.7,05.4,0000.0,0005.67,0001.73,0000.77
2022-04-06 06:51:00,,0824.2,5.00,0.00,22.1,21.2,00.0,31.2,23.7,05.5,0000.0,0005.52,0001.67,0000.76
2022-04-06 06:52:00,,0824.3,5.01,0.00,22.0,21.1,00.0,31.1,23.7,05.6,0000.0,0005.50,0001.65,0000.75
2022-04-06 06:53:00,,0824.2,5.00,0.00,22.0,21.0,00.0,31.1,23.5,05.6,0000.0,0005.17,0001.61,0000.74
2022-04-06 06:54:00,,0824.2,4.99,0.00,21.9,21.0,00.0,31.1,23.5,05.5,0000.0,0005.53,0001.59,0000.74
2022-04-06 06:55:00,,0824.2,5.00,0.00,21.9,20.9,00.0,31.1,23.4,05.6,0000.0,0005.70,0001.60,0000.73
2022-04-06 06:56:00,,0824.1,5.00,0.00,21.9,20.8,00.0,31.0,23.4,05.7,0000.0,0005.99,0001.64,0000.73
2022-04-06 06:57:00,,0824.2,5.02,0.00,21.9,20.6,00.0,31.0,23.5,05.8,0000.0,0006.39,0001.67,0000.73
2022-04-06 06:58:00,,0824.2,4.99,0.00,21.8,20.6,00.0,31.0,23.4,05.8,0000.0,0006.55,0001.62,0000.74
2022-04-06 06:59:00,,0824.3,5.00,0.00,21.8,21.1,00.0,31.0,23.5,05.8,0000.0,0006.44,0001.60,0000.75
